Orbital Elements at Epoch 2459200.5 (2020-Dec-17.0) TDB
Reference: JPL 18 (heliocentric ecliptic J2000)
Element | Value | Uncertainty (1-sigma) | Units |
e | .1590900899177615 | 3.6659e-08 | |
a | 2.331627038709635 | 7.9189e-09 | au |
q | 1.960688283466635 | 8.6805e-08 | au |
i | 2.971627448440421 | 3.8703e-06 | deg |
node | 121.1790474578702 | 7.3499e-05 | deg |
peri | 31.85032271405866 | 7.4469e-05 | deg |
M | 283.7251027108378 | 1.2641e-05 | deg |
tp | 2459476.028280602420 (2021-Sep-18.52828060) | 4.6318e-05 | TDB |
period | 1300.430214161231 3.56 | 6.6249e-06 1.814e-08 | d yr |
n | .2768314639876294 | 1.4103e-09 | deg/d |
Q | 2.702565793952635 | 9.1787e-09 | au |
|
| | Orbit Determination Parameters
Additional Information
|